User: anonymous   Login
Location: Elstree
(51.6403°N, 0.2969°W)
Time: 12:36:14
(UTC+00:00)
Language:

Meteor 1-20 Rocket - Orbit

View from above orbital plane
View from above orbital plane
View from above satellite
View from above satellite

Ground track
Ground track

The orbit data is extracted from the following two-line orbital elements,

1  7575U 74099B   21138.05425953 -.00000019  00000-0 -17510-4 0  9991
2  7575  81.2464 358.6856 0049969 172.6402 187.5515 14.11088226388487
Epoch (UTC): 18 May 2021 01:18:08
Eccentricity: 0.0049969
inclination: 81.2464°
perigee height: 819 km
apogee height: 892 km
right ascension of ascending node: 358.6856°
argument of perigee: 172.6402°
revolutions per day: 14.11088226
mean anomaly at epoch: 187.5515°
orbit number at epoch: 38848

The dashed part of the orbit path shows where the satellite is in the earth's shadow,  

DLR